Location: *
(52.4167°S, 179.7333°W)
Time: 03:26:19
(UTC+00:00)

Daily predictions for brighter satellites

Satellite Brightness Start Highest point End
(mag) Time Altitude Azimuth Time Altitude Azimuth Time Altitude Azimuth
USA 59 Rocket 2.9 07:56:09 10° WSW 08:06:11 49° SSE 08:15:08 10° E
USA 307 2.9 08:06:43 10° W 08:10:43 66° S 08:14:07 10° E
Okean O Rocket 3.7 08:10:36 10° ESE 08:11:49 11° E 08:13:03 10° E
SPOT 5 3.8 08:08:25 10° SSE 08:12:36 30° E 08:16:54 10° NNE
Cosmos 1898 Rocket 4.5 08:10:09 10° SSW 08:15:10 37° SE 08:20:06 10° ENE
ATLAS 5 CENTAUR R/B 4.1 08:12:46 10° NE 08:17:00 17° ENE 08:21:11 10° ESE
Cosmos 1892 Rocket 3.9 08:14:00 10° N 08:18:22 51° E 08:22:46 10° SSE
Cosmos 1553 Rocket 4.3 08:12:27 10° S 08:18:47 56° ESE 08:24:55 10° NNE
Cosmos 1092 Rocket 4.0 08:18:16 10° N 08:24:24 73° E 08:30:38 10° SSE
IKONOS-2 4.5 08:23:52 10° NNE 08:28:01 79° ESE 08:32:13 10° SSW
Cosmos 1763 Rocket 3.5 08:24:14 10° N 08:29:11 56° ENE 08:34:13 10° SSE
Cosmos 1726 Rocket 3.7 08:25:14 10° SSW 08:29:22 70° W 08:33:28 10° N
USA 267 3.7 08:23:55 10° E 08:30:26 64° S 08:37:00 10° WSW
Cosmos 2360 Rocket 4.3 08:28:04 10° SSW 08:32:02 19° SSE 08:35:59 10° ESE
Cosmos 540 Rocket 3.6 08:29:08 10° N 08:34:06 54° ENE 08:39:08 10° SSE
Cosmos 990 Rocket 4.2 08:29:00 10° SSW 08:34:18 77° WNW 08:39:31 10° NNE
Terra 3.2 08:31:05 10° SE 08:34:49 22° E 08:38:17 11° NE
TSX-5 4.2 08:29:43 10° NNW 08:35:02 73° ENE 08:39:24 10° SE
USA 281 4.1 08:30:19 10° SE 08:35:59 29° ENE 08:41:35 10° NNE
Cosmos 2026 Rocket 4.2 08:29:41 10° N 08:36:03 86° W 08:42:34 10° S
Cosmos 2333 Rocket 4.0 08:31:49 10° SSW 08:36:21 23° SSE 08:40:51 10° E
Cosmos 2322 Rocket 4.2 08:32:47 10° SSW 08:36:58 20° SSE 08:41:08 10° ESE
COSMOS 2455 3.8 08:31:17 10° SSW 08:36:59 40° SE 08:42:39 10° ENE
Cosmos 1461 2.4 08:33:56 10° SW 08:37:28 81° NW 08:40:40 12° NE
RESURS DK-1 3.8 08:36:23 11° NNE 08:39:01 18° ENE 08:41:49 10° ESE
CZ-4B R/B 4.2 08:39:29 10° S 08:43:39 73° WSW 08:47:46 10° NNW
Cosmos 1346 Rocket 2.6 08:40:05 10° N 08:43:49 86° E 08:47:35 10° SSE
CSL-04 Rocket 3.7 08:41:42 10° SSE 08:47:03 61° ENE 08:52:19 10° N
SL-16 R/B 3.6 08:42:47 10° SSW 08:47:49 30° SE 08:52:49 10° ENE
Meteor 2-2 Rocket 4.5 08:43:51 10° SSW 08:50:00 89° E 08:56:06 10° N
Cosmos 2369 4.1 08:46:16 10° SSW 08:51:55 58° SE 08:56:53 13° NE
Cosmos 1697 Rocket 3.4 08:47:41 10° SW 08:53:12 49° WNW 08:58:38 10° N
CZ-4 R/B 1.1 08:50:36 10° SSE 08:54:23 83° ENE 08:58:05 10° NNW
Cosmos 2082 Rocket 3.0 08:52:12 10° NNE 08:57:07 31° ENE 09:02:05 10° SE
Cosmos 1733 4.3 08:57:55 13° E 08:58:18 14° E 08:59:43 10° SE
SJ-6B 4.4 08:55:50 10° S 08:59:11 33° WSW 09:02:27 10° NW
Cosmos 2151 4.3 08:56:55 15° NE 08:59:20 23° E 09:02:44 10° SE
Cosmos 2221 3.3 08:55:43 10° S 08:59:42 36° ESE 09:02:41 16° NE
Cosmos 405 Rocket 4.2 08:58:47 14° ENE 08:59:55 16° E 09:02:06 10° SE
Helios 1A 4.2 08:57:31 10° NNW 09:01:19 37° W 09:05:10 10° SSW
Cosmos 1743 4.0 09:00:32 16° ENE 09:01:52 19° E 09:04:22 10° SE
Meteor 1-31 Rocket 3.9 08:58:58 10° S 09:02:26 41° WSW 09:05:50 10° NW
Cosmos 372 Rocket 4.0 08:59:10 10° SSW 09:04:27 88° ESE 09:08:46 15° NNE
Resurs 01 Rocket 3.3 09:00:50 10° S 09:04:57 37° WSW 09:09:02 10° NW
Cosmos 841 Rocket 4.2 09:01:26 12° NNE 09:05:37 34° ENE 09:10:18 10° SE
Cosmos 2219 Rocket 4.3 09:03:31 10° SSW 09:07:34 20° SSE 09:11:36 10° ESE
Aureole 1 Rocket 3.3 09:02:46 10° SSW 09:08:08 78° WNW 09:11:28 16° NNE
ATLAS 3B R/B 4.4 09:03:26 10° WSW 09:08:53 30° S 09:14:18 10° SE
MOS 1 4.5 09:07:52 10° SSE 09:13:35 56° E 09:18:58 11° N
Cosmos 468 Rocket 3.9 09:11:07 10° NNW 09:16:15 75° ENE 09:21:27 10° SSE
Okean-O 3.4 09:12:38 10° SSE 09:16:45 35° E 09:19:21 19° NNE
USA 238 DEB 4.3 09:11:20 10° SW 09:17:37 43° WNW 09:22:38 14° N
USA 238 4.3 09:11:26 10° SW 09:17:44 43° WNW 09:22:43 14° N
Cosmos 1937 Rocket 3.6 09:14:09 10° SSW 09:19:30 76° ESE 09:23:25 19° NNE
COSMOS 2406 4.3 09:17:06 17° NE 09:20:10 27° ENE 09:24:55 10° SE
Cosmos 2266 Rocket 4.0 09:19:16 12° N 09:24:51 66° E 09:30:56 10° SSE
USA 186 1.4 09:26:50 10° S 09:29:25 68° WSW 09:31:11 18° NNW
Geosat 3.9 09:27:54 10° SSE 09:33:00 80° ENE 09:38:03 10° NNW
Cosmos 1758 Rocket 3.5 09:31:17 15° N 09:34:51 82° E 09:39:15 10° SSE
ADEOS 3.7 09:30:48 10° SSE 09:36:09 82° WSW 09:41:24 10° NNW
CZ-4B R/B 3.1 09:30:41 10° SSE 09:36:11 85° ENE 09:41:33 10° NNW
Cosmos-2242 4.3 09:32:35 10° SSW 09:36:26 34° W 09:40:13 10° NNW
Exosat Rocket 3.9 09:30:45 10° N 09:36:45 52° ENE 09:41:45 10° SE
USA 215 3.8 09:31:07 10° ESE 09:37:06 35° NE 09:43:02 10° NNW
CZ-2C R/B 2.2 09:34:55 10° SSE 09:38:11 87° ENE 09:40:08 22° NNW
USA 307 2.0 09:35:48 10° WSW 09:39:33 81° NNW 09:40:57 30° ENE
Okean 1 4.4 09:36:42 10° SSW 09:40:08 36° W 09:43:00 13° NNW
Cosmos 1842 4.0 09:37:26 10° S 09:40:33 31° ESE 09:41:50 24° ENE
Cosmos 1833 Rocket 3.9 09:36:17 10° WNW 09:41:42 44° SW 09:47:09 10° SSE
Meteor 2-6 Rocket 4.5 09:36:20 10° SSW 09:42:04 66° W 09:46:24 17° N
Cosmos 1980 Rocket 3.0 09:38:27 10° SW 09:43:51 44° WNW 09:48:00 16° N
Cosmos 1825 Rocket 4.3 09:44:09 24° NE 09:46:07 38° E 09:50:10 10° SSE
S3M 4.1 09:41:20 10° SSW 09:47:34 76° W 09:52:22 18° N
Okean O Rocket 1.5 09:44:22 10° SSE 09:48:47 78° ENE 09:51:49 20° N
SPOT 5 3.9 09:46:13 10° S 09:50:41 44° WSW 09:55:19 10° NW
ERS-1 Rocket 3.1 09:48:02 10° SSE 09:53:10 81° WSW 09:57:45 13° NNW
CZ-4B R/B 2.4 09:49:54 10° SSE 09:53:23 74° ENE 09:55:03 29° N
MetOp-B 4.3 09:50:55 10° SSE 09:56:22 76° WSW 10:01:43 10° NNW
USA 59 Rocket 2.0 09:46:41 10° SW 09:57:05 80° SE 10:04:11 17° NE
Cosmos 1898 Rocket 4.3 09:52:10 10° SW 09:57:17 45° WNW 10:00:48 19° N
IRS-1A Rocket 4.3 09:51:34 10° SSE 09:57:30 77° ENE 10:01:57 18° N
BREEZE-M DEB (TANK) 4.4 09:55:39 10° NW 09:55:48 11° NW 09:55:48 11° NW
ATLAS 5 CENTAUR R/B 2.7 09:51:41 10° NNW 09:58:43 60° NE 10:05:24 10° SE
SL-8 R/B 3.8 09:54:08 10° WNW 09:58:48 52° N 10:03:29 10° E
Cosmos 1655 Rocket 4.1 09:56:10 21° N 10:00:29 68° E 10:06:46 10° SSE
NOSS 3-4 (A) 4.5 09:52:41 10° WNW 10:01:32 73° SW 10:09:29 10° SE
NOSS 3-4 (C) 4.5 09:52:44 10° NW 10:01:34 73° SW 10:09:31 10° SE
Cosmos 2285 Rocket 4.1 09:58:41 10° SSW 10:05:13 75° ESE 10:09:20 24° NE
Okean 1-7 Rocket 3.5 10:04:55 26° N 10:07:23 81° E 10:11:52 10° SSE
NOSS 3-1 (C) 3.5 10:01:49 10° SW 10:09:04 81° SE 10:12:56 22° NE
Landsat 5 3.9 10:08:06 29° NE 10:09:57 53° ESE 10:14:08 10° S
CZ-2C R/B 4.0 10:07:28 25° N 10:09:57 61° WNW 10:14:26 10° SSW
Cosmos 1842 Rocket 4.3 10:06:02 10° S 10:10:21 44° ESE 10:12:21 27° NE
Terra 2.3 10:08:00 10° S 10:12:44 60° WSW 10:16:54 13° NNW
USA 267 3.2 10:08:01 17° ENE 10:13:23 81° NNW 10:20:03 10° WSW
RESURS DK-1 2.7 10:12:03 10° NW 10:16:02 62° SW 10:20:03 10° SSE
Ariane Rocket 3.4 10:11:41 10° SSE 10:16:41 47° E 10:18:57 29° NNE
Cosmos 1707 2.3 10:13:34 10° SSW 10:16:49 69° W 10:17:42 43° NNW
KORONAS-FOTON 3.7 10:13:31 10° SSW 10:17:02 67° W 10:18:13 38° NNW
Cosmos 2360 Rocket 2.7 10:11:41 10° SSW 10:17:19 55° SE 10:21:03 21° NE
Cosmos 1238 Rocket 2.8 10:13:32 10° SSW 10:17:21 80° W 10:19:09 33° N
Cosmos 2315 Rocket 4.4 10:12:59 10° SSW 10:19:10 60° W 10:23:27 20° NNW
USA 281 3.4 10:14:23 10° SSE 10:21:02 75° WSW 10:27:37 10° NW
Meteor PRIRODA 4.0 10:19:13 10° SSE 10:20:28 27° SE 10:20:28 27° SE
Cosmos 2333 Rocket 2.3 10:15:50 10° SSW 10:21:35 78° ESE 10:24:52 27° NE
Cosmos 2322 Rocket 2.4 10:16:28 10° SSW 10:22:08 65° SE 10:25:33 24° NE
COSMOS 2455 3.0 10:17:16 10° SW 10:23:14 62° WNW 10:26:26 28° NNE
SeaSat 1 3.0 10:22:27 22° ENE 10:25:32 54° SE 10:30:23 10° SSW
CZ-4 R/B 4.2 10:26:10 10° SSW 10:27:56 13° WSW 10:29:42 10° W
Cosmos 1733 4.1 10:28:16 20° WNW 10:29:10 25° WSW 10:31:24 10° SSW
CZ-4B R/B 3.7 10:24:17 10° SSE 10:29:25 73° WSW 10:33:12 19° NNW
DELTA 2 DEB (DPAF) 4.3 10:29:56 32° NNW 10:31:23 50° W 10:35:13 10° SSW
SL-16 R/B 2.2 10:26:43 10° SW 10:32:27 73° WNW 10:35:20 30° NNE
Cosmos 1805 4.4 10:32:19 23° E 10:32:34 24° E 10:35:24 10° SE
Cosmos 405 Rocket 3.5 10:31:34 22° NW 10:33:18 39° WSW 10:36:27 10° S
Helios 1B rocket 2.1 10:30:45 10° SSE 10:34:28 72° ENE 10:35:28 45° N
Cosmos 1743 3.8 10:33:28 19° NW 10:35:20 33° WSW 10:38:26 10° S
Cosmos 2151 3.9 10:32:59 17° NW 10:35:54 43° WSW 10:40:01 10° S
Cosmos 2221 4.0 10:33:00 10° SSW 10:36:39 28° W 10:39:02 17° NW
Meteor 1-5 Rocket 4.2 10:36:48 31° N 10:39:29 67° E 10:45:10 10° SSE
Spot 2 Rocket 3.9 10:34:29 10° S 10:39:35 62° WSW 10:43:19 18° NW
Cosmos 2082 Rocket 2.7 10:35:14 10° NW 10:40:53 60° SW 10:46:37 10° SSE
Meteor 1-25 Rocket 4.3 10:37:46 24° NNW 10:41:25 84° WSW 10:47:15 10° SSE
Cosmos 1437 Rocket 3.2 10:38:46 10° SSW 10:42:20 47° W 10:43:26 35° NW
Cosmos 1066 Rocket 4.5 10:37:41 10° S 10:43:34 68° ESE 10:46:38 29° NNE
Cosmos 2278 3.8 10:38:09 10° SW 10:43:52 68° WNW 10:46:35 32° N
BREEZE-M DEB 4.2 10:43:03 10° WNW 10:47:03 70° N 11:02:20 10° E
Cosmos 841 Rocket 4.5 10:42:16 10° NW 10:47:17 46° WSW 10:52:20 10° SSE
PSLV R/B 3.8 10:45:47 35° NNW 10:47:24 60° WNW 10:51:40 10° SSW
Meteor 1-27 Rocket 4.0 10:42:26 10° SSW 10:47:56 58° W 10:50:47 28° NNW
Cosmos 220 Rocket 4.4 10:45:43 20° NW 10:48:33 59° WSW 10:52:48 10° SSE
CZ-4C R/B 3.8 10:48:57 35° NW 10:49:49 43° W 10:53:12 10° SSW
Cosmos 1536 4.3 10:50:52 21° ENE 10:51:27 22° E 10:54:26 10° SE
Cosmos 2219 Rocket 2.5 10:47:05 10° SSW 10:52:41 61° SE 10:56:08 23° NE
Okean-O 4.1 10:48:59 10° S 10:53:02 34° WSW 10:56:43 12° NW
Cosmos 1953 Rocket 3.6 10:52:31 35° NNW 10:54:25 81° WSW 10:59:00 10° S
NOSS 3-1 (A) 3.5 10:50:28 10° SW 10:57:43 80° SE 11:01:31 23° NE
Cosmos 1076 Rocket 3.7 10:57:18 33° NNW 10:59:10 69° WSW 11:03:36 10° S
ATLAS 3B R/B 4.0 10:55:28 10° SW 11:01:08 35° SSE 11:06:53 10° E
COSMOS 2406 3.5 10:59:03 14° NW 11:03:59 68° SW 11:09:50 10° SSE
IRS-1C Rocket 4.3 10:59:22 10° SSE 11:04:43 70° WSW 11:07:49 25° NNW
Cosmos 158 Rocket 3.8 11:04:36 38° N 11:06:25 67° ENE 11:11:19 10° SSE
USA 307 4.4 11:05:15 10° W 11:06:11 14° W 11:06:11 14° W
SPOT 3 Rocket 3.9 11:03:52 10° S 11:09:02 62° WSW 11:12:09 24° NW
Cosmos 1814 Rocket 4.0 11:06:25 31° NNW 11:09:06 87° ENE 11:14:27 10° SSE
CZ-2C R/B 3.2 11:06:41 32° NNE 11:09:10 73° ESE 11:14:46 10° SSW
Meteor 2-10 4.2 11:10:16 34° N 11:12:45 73° E 11:18:30 10° SSE
Cosmos 1709 Rocket 4.4 11:11:19 29° NNE 11:14:10 51° E 11:20:11 10° SSE
Cosmos 1745 Rocket 4.0 11:12:15 32° NNE 11:15:12 68° E 11:21:23 10° SSE
Cosmos 1271 Rocket 4.2 11:13:52 10° S 11:16:57 25° ESE 11:18:08 21° E
PSLV R/B 3.8 11:14:55 10° SSE 11:17:30 42° E 11:17:30 42° E
USA 215 3.2 11:14:01 10° ESE 11:20:41 84° NNE 11:27:18 10° WNW
Okean O Rocket 4.1 11:21:34 10° SSW 11:24:27 17° WSW 11:27:19 10° W
Cosmos 1151 Rocket 3.0 11:21:02 10° S 11:25:28 82° E 11:26:48 44° NNE
COSMOS 2428 3.6 11:22:36 10° SSW 11:28:12 47° SE 11:33:01 14° ENE
Cosmos 2322 4.4 11:24:12 10° SSW 11:29:53 53° SE 11:34:15 17° NE
Cosmos 1125 Rocket 3.6 11:30:54 10° SSW 11:36:08 66° WNW 11:38:02 38° N
Nadezhda 1 Rocket 4.2 11:32:09 10° SSW 11:38:19 62° W 11:41:23 31° NNW
Cosmos 2333 4.4 11:33:32 10° SW 11:39:05 56° WNW 11:41:11 35° N
SL-8 R/B 3.9 11:36:09 10° W 11:40:46 47° NNW 11:41:44 41° NNE
Cosmos 1570 Rocket 4.4 11:39:23 35° NNE 11:41:12 51° ENE 11:46:20 10° SSE
ATLAS 5 CENTAUR R/B 3.3 11:34:41 10° WNW 11:41:44 55° SSW 11:48:11 10° SE
Cosmos 2297 Rocket 4.3 11:39:57 10° ENE 11:42:12 13° E 11:44:32 10° ESE
CZ-2D R/B 4.4 11:39:51 10° E 11:43:33 19° SE 11:47:17 10° S
Cosmos 972 Rocket 4.2 11:40:51 10° SSW 11:45:41 54° WNW 11:47:21 37° NNW
USA 59 Rocket 2.4 11:36:57 10° SW 11:45:59 42° WNW 11:49:51 27° NNW
SL-4 R/B 3.1 11:49:27 29° ENE 11:49:27 29° ENE 11:52:04 10° E
Cosmos 2237 Rocket 3.7 11:43:08 10° SSW 11:48:23 34° SE 11:53:34 10° ENE
ARIANE 5 R/B 3.2 11:45:47 10° SSE 11:50:12 47° E 11:51:33 35° NE
Cosmos 546 4.4 11:50:41 10° W 11:54:29 66° N 11:58:18 10° ENE
Ariane Rocket 4.4 11:50:51 10° S 11:55:25 32° WSW 11:59:02 15° WNW
